Météo par heure à Cislitsa-Prut

Ce jour, 4 Août, Mercredi

Heure Température Précipitation Vent Pression Humidité
00:00 +24°C° 0 mm 2 m/s 757 mmHg 62%
01:00 +24°C° 0 mm 2 m/s 757 mmHg 65%
02:00 +23°C° 0 mm 1 m/s 757 mmHg 73%
03:00 +22°C° 0.2 mm 1 m/s 757 mmHg 77%
04:00 +22°C° 0.2 mm 1 m/s 757 mmHg 81%
05:00 +21°C° 0.2 mm 1 m/s 757 mmHg 85%
06:00 +23°C° 0.2 mm 2 m/s 757 mmHg 78%
07:00 +25°C° 0.2 mm 2 m/s 758 mmHg 71%
08:00 +26°C° 0 mm 3 m/s 758 mmHg 64%
09:00 +28°C° 0 mm 3 m/s 758 mmHg 58%
10:00 +30°C° 0 mm 3 m/s 758 mmHg 51%
11:00 +33°C° 0 mm 3 m/s 757 mmHg 45%
12:00 +34°C° 0 mm 3 m/s 757 mmHg 42%
13:00 +34°C° 0 mm 3 m/s 756 mmHg 38%
14:00 +35°C° 0 mm 2 m/s 756 mmHg 36%
15:00 +35°C° 0 mm 3 m/s 756 mmHg 36%
16:00 +35°C° 0 mm 3 m/s 756 mmHg 36%
17:00 +35°C° 0 mm 3 m/s 755 mmHg 37%
18:00 +30°C° 0.7 mm 4 m/s 756 mmHg 52%
19:00 +27°C° 0.7 mm 4 m/s 756 mmHg 67%
20:00 +23°C° 0.7 mm 4 m/s 757 mmHg 83%
21:00 +24°C° 0.2 mm 3 m/s 757 mmHg 84%
22:00 +24°C° 0.2 mm 3 m/s 757 mmHg 84%
23:00 +23°C° 0.2 mm 2 m/s 757 mmHg 85%

Demain, 5 Août, Jeudi

Heure Température Précipitation Vent Pression Humidité
00:00 +23°C° 0 mm 2 m/s 756 mmHg 87%
01:00 +23°C° 0 mm 2 m/s 756 mmHg 88%
02:00 +23°C° 0 mm 2 m/s 756 mmHg 89%
03:00 +23°C° 0 mm 2 m/s 756 mmHg 90%
04:00 +23°C° 0 mm 2 m/s 756 mmHg 91%
05:00 +23°C° 0 mm 2 m/s 755 mmHg 92%
06:00 +25°C° 0 mm 2 m/s 755 mmHg 85%
07:00 +26°C° 0 mm 3 m/s 755 mmHg 79%
08:00 +28°C° 0 mm 3 m/s 755 mmHg 73%
09:00 +30°C° 0 mm 4 m/s 754 mmHg 63%
10:00 +32°C° 0 mm 4 m/s 754 mmHg 54%
11:00 +34°C° 0 mm 4 m/s 754 mmHg 45%
12:00 +35°C° 0 mm 4 m/s 753 mmHg 39%
13:00 +37°C° 0 mm 5 m/s 752 mmHg 34%
14:00 +39°C° 0 mm 5 m/s 752 mmHg 29%
15:00 +38°C° 0 mm 6 m/s 751 mmHg 34%
16:00 +36°C° 0 mm 7 m/s 751 mmHg 39%
17:00 +35°C° 0 mm 8 m/s 750 mmHg 45%
18:00 +33°C° 0 mm 8 m/s 750 mmHg 53%
19:00 +31°C° 0 mm 8 m/s 750 mmHg 61%
20:00 +28°C° 0 mm 8 m/s 750 mmHg 69%
21:00 +28°C° 0 mm 7 m/s 750 mmHg 70%
22:00 +27°C° 0 mm 6 m/s 750 mmHg 70%
23:00 +27°C° 0 mm 5 m/s 751 mmHg 71%

Après-demain, 6 Août, Vendredi

Heure Température Précipitation Vent Pression Humidité
00:00 +27°C° 0 mm 5 m/s 750 mmHg 66%
01:00 +27°C° 0 mm 4 m/s 749 mmHg 61%
02:00 +27°C° 0 mm 3 m/s 748 mmHg 56%
03:00 +26°C° 0 mm 3 m/s 748 mmHg 63%
04:00 +25°C° 0 mm 2 m/s 748 mmHg 69%
05:00 +24°C° 0 mm 2 m/s 748 mmHg 76%
06:00 +25°C° 0 mm 3 m/s 748 mmHg 74%
07:00 +27°C° 0 mm 4 m/s 748 mmHg 72%
08:00 +28°C° 0 mm 5 m/s 748 mmHg 70%
09:00 +29°C° 0 mm 5 m/s 748 mmHg 65%
10:00 +32°C° 0 mm 4 m/s 748 mmHg 59%
11:00 +33°C° 0 mm 4 m/s 748 mmHg 54%
12:00 +33°C° 0 mm 4 m/s 748 mmHg 49%
13:00 +33°C° 0 mm 3 m/s 748 mmHg 45%
14:00 +34°C° 0 mm 3 m/s 748 mmHg 41%
15:00 +34°C° 0 mm 3 m/s 747 mmHg 40%
16:00 +34°C° 0 mm 3 m/s 747 mmHg 38%
17:00 +34°C° 0 mm 3 m/s 747 mmHg 37%
18:00 +31°C° 0 mm 3 m/s 747 mmHg 41%
19:00 +30°C° 0 mm 4 m/s 748 mmHg 44%
20:00 +28°C° 0 mm 4 m/s 748 mmHg 47%
21:00 +27°C° 0.1 mm 5 m/s 749 mmHg 54%
22:00 +24°C° 0.1 mm 6 m/s 749 mmHg 61%
23:00 +23°C° 0.1 mm 7 m/s 750 mmHg 69%

7 Août, Samedi

Heure Température Précipitation Vent Pression Humidité
00:00 +22°C° 0.1 mm 6 m/s 750 mmHg 70%
01:00 +22°C° 0.1 mm 5 m/s 750 mmHg 72%
02:00 +21°C° 0.1 mm 5 m/s 751 mmHg 74%
03:00 +21°C° 0.1 mm 5 m/s 751 mmHg 76%
04:00 +20°C° 0.1 mm 6 m/s 751 mmHg 79%
05:00 +20°C° 0.1 mm 6 m/s 752 mmHg 82%
06:00 +20°C° 0 mm 6 m/s 752 mmHg 77%
07:00 +20°C° 0 mm 6 m/s 753 mmHg 73%
08:00 +21°C° 0 mm 6 m/s 754 mmHg 68%
09:00 +22°C° 0 mm 6 m/s 754 mmHg 62%
10:00 +23°C° 0 mm 7 m/s 754 mmHg 56%
11:00 +26°C° 0 mm 7 m/s 754 mmHg 50%
12:00 +27°C° 0 mm 7 m/s 754 mmHg 46%
13:00 +28°C° 0 mm 6 m/s 754 mmHg 41%
14:00 +29°C° 0 mm 6 m/s 754 mmHg 37%
15:00 +29°C° 0 mm 6 m/s 754 mmHg 35%
16:00 +29°C° 0 mm 6 m/s 754 mmHg 34%
17:00 +29°C° 0 mm 6 m/s 754 mmHg 32%
18:00 +27°C° 0 mm 5 m/s 755 mmHg 40%
19:00 +25°C° 0 mm 4 m/s 755 mmHg 48%
20:00 +22°C° 0 mm 3 m/s 755 mmHg 56%
21:00 +21°C° 0 mm 3 m/s 756 mmHg 58%
22:00 +21°C° 0 mm 3 m/s 756 mmHg 60%
23:00 +20°C° 0 mm 3 m/s 756 mmHg 62%

8 Août, Dimanche

Heure Température Précipitation Vent Pression Humidité
00:00 +20°C° 0 mm 3 m/s 756 mmHg 62%
01:00 +19°C° 0 mm 3 m/s 756 mmHg 63%
02:00 +19°C° 0 mm 3 m/s 756 mmHg 64%
03:00 +19°C° 0 mm 3 m/s 757 mmHg 64%
04:00 +18°C° 0 mm 2 m/s 757 mmHg 65%
05:00 +18°C° 0 mm 2 m/s 757 mmHg 65%
06:00 +20°C° 0 mm 2 m/s 757 mmHg 59%
07:00 +23°C° 0 mm 2 m/s 757 mmHg 54%
08:00 +24°C° 0 mm 2 m/s 758 mmHg 48%
09:00 +26°C° 0 mm 2 m/s 758 mmHg 43%
10:00 +28°C° 0 mm 2 m/s 758 mmHg 37%
11:00 +29°C° 0 mm 1 m/s 758 mmHg 32%
12:00 +30°C° 0 mm 1 m/s 757 mmHg 31%
13:00 +32°C° 0 mm 1 m/s 757 mmHg 29%
14:00 +33°C° 0 mm 1 m/s 757 mmHg 27%
15:00 +33°C° 0 mm 1 m/s 757 mmHg 27%
16:00 +33°C° 0 mm 1 m/s 756 mmHg 28%
17:00 +33°C° 0 mm 1 m/s 756 mmHg 28%
18:00 +31°C° 0 mm 2 m/s 756 mmHg 32%
19:00 +29°C° 0 mm 2 m/s 757 mmHg 36%
20:00 +27°C° 0 mm 2 m/s 757 mmHg 40%
21:00 +26°C° 0 mm 2 m/s 757 mmHg 42%
22:00 +26°C° 0 mm 2 m/s 757 mmHg 43%
23:00 +25°C° 0 mm 2 m/s 757 mmHg 44%

9 Août, Lundi

Heure Température Précipitation Vent Pression Humidité
00:00 +24°C° 0 mm 2 m/s 757 mmHg 46%
01:00 +24°C° 0 mm 1 m/s 757 mmHg 48%
02:00 +23°C° 0 mm 1 m/s 757 mmHg 50%
03:00 +23°C° 0 mm 1 m/s 757 mmHg 51%
04:00 +21°C° 0 mm 0 m/s 757 mmHg 52%
05:00 +20°C° 0 mm 0 m/s 757 mmHg 53%
06:00 +24°C° 0 mm 1 m/s 757 mmHg 50%
07:00 +26°C° 0 mm 1 m/s 757 mmHg 46%
08:00 +28°C° 0 mm 1 m/s 757 mmHg 42%
09:00 +29°C° 0 mm 1 m/s 757 mmHg 38%
10:00 +31°C° 0 mm 1 m/s 757 mmHg 34%
11:00 +33°C° 0 mm 1 m/s 758 mmHg 30%
12:00 +35°C° 0 mm 2 m/s 757 mmHg 29%
13:00 +36°C° 0 mm 2 m/s 757 mmHg 28%
14:00 +37°C° 0 mm 2 m/s 757 mmHg 26%
15:00 +37°C° 0 mm 2 m/s 757 mmHg 27%
16:00 +37°C° 0 mm 2 m/s 757 mmHg 27%
17:00 +36°C° 0 mm 3 m/s 757 mmHg 28%
18:00 +35°C° 0 mm 3 m/s 757 mmHg 31%
19:00 +33°C° 0 mm 3 m/s 757 mmHg 35%
20:00 +30°C° 0 mm 3 m/s 757 mmHg 39%
21:00 +28°C° 0 mm 2 m/s 757 mmHg 43%
22:00 +27°C° 0 mm 2 m/s 758 mmHg 47%
23:00 +26°C° 0 mm 2 m/s 758 mmHg 51%
Voir plus

Nous avons besoin de votre consentement

Meteoprog et ses fournisseurs de services peuvent stocker et accéder à des données personnelles telles que des cookies, des identifiants d'appareils ou d'autres technologies similaires sur votre appareil et traiter ces données pour personnaliser le contenu et les publicités, ainsi que pour fournir des fonctionnalités de médias sociaux et analyser le trafic.

  • Stocker et/ou accéder à des informations sur votre appareil

    Des cookies, des identifiants d'appareils ou d'autres informations peuvent être stockés ou accessibles sur votre appareil aux fins indiquées ci-dessus.

  • Annonces et contenus personnalisés, mesure des annonces et des contenus, connaissance de l'audience et développement de produits

    Les annonces et le contenu peuvent être personnalisés en fonction d'un profil. D'autres données peuvent être ajoutées pour mieux personnaliser les annonces et le contenu. Les performances des publicités et du contenu peuvent être mesurées. Il est possible d'obtenir des informations sur le public qui a vu les publicités et le contenu. Ces données peuvent être utilisées pour développer ou améliorer l'expérience de l'utilisateur, les systèmes et les logiciels.

En cliquant sur "J'accepte", vous autorisez l'utilisation de cookies, des identifiants d'appareils, des balises web ou d'autres technologies similaires. Vos paramètres peuvent être modifiés dans le navigateur de votre appareil.

Dans certains cas, des intérêts légitimes peuvent être invoqués plutôt qu'un consentement. Vous pouvez en savoir plus à ce sujet dans notre Politique de confidentialité et de cookies.